Waarnemingen

Advertentie
Mijn weer
Lossiemouth, Groot Brittannië (3068): temperatuur & dauwpunt: 14.11.2017 00:00:00 - 20.11.2017 00:00:00 (GMT)Lossiemouth, Groot Brittannië (3068): windsnelheid & windstoten: 14.11.2017 00:00:00 - 20.11.2017 00:00:00 (GMT)Lossiemouth, Groot Brittannië (3068): windrichting: 14.11.2017 00:00:00 - 20.11.2017 00:00:00 (GMT)Lossiemouth, Groot Brittannië (3068): luchtdruk: 14.11.2017 00:00:00 - 20.11.2017 00:00:00 (GMT)Lossiemouth, Groot Brittannië (3068): zicht: 14.11.2017 00:00:00 - 20.11.2017 00:00:00 (GMT)Lossiemouth, Groot Brittannië (3068): neerslag: 14.11.2017 00:00:00 - 20.11.2017 00:00:00 (GMT)
Datum & Tijd tt [°C] td [°C] ff [km/u] ff [kn] fx [km/u] fx [kn] dd ppp [hPa] vv [km] rr [mm]
20.11.2017 00:00:00 4,0 1,0 5 3 - - ZZO - 10 0,0
19.11.2017 23:00:00 3,7 0,7 5 3 - - ZZO 1015,6 10 0,0
19.11.2017 22:00:00 2,9 1,0 8 4 - - Z 1016,3 10 0,0
19.11.2017 21:00:00 2,7 1,1 8 4 - - ZZW 1017,3 10 0,0
19.11.2017 20:00:00 3,1 1,2 4 2 - - Z 1017,9 10 0,0
19.11.2017 19:00:00 3,4 1,2 5 3 - - Z 1018,1 10 0,0
19.11.2017 18:00:00 3,4 1,4 11 6 - - WZW 1018,8 10 0,0
19.11.2017 17:00:00 3,9 1,4 13 7 - - WZW 1019,2 10 0,0
19.11.2017 16:00:00 4,1 1,9 13 7 - - WZW 1019,5 10 0,0
19.11.2017 15:00:00 5,0 1,6 15 8 - - W 1019,8 10 0,0
19.11.2017 14:00:00 5,3 1,6 16 9 - - WZW 1020,0 10 0,0
19.11.2017 13:00:00 5,1 2,0 18 10 - - WZW 1020,7 10 0,0
19.11.2017 12:00:00 4,8 2,1 21 11 - - WZW 1020,9 10 0,0
19.11.2017 11:00:00 4,5 2,5 15 8 - - WZW 1021,1 10 0,0
19.11.2017 10:00:00 3,9 2,1 16 9 - - ZW 1021,0 10 0,0
19.11.2017 09:00:00 2,6 0,7 18 10 - - W 1021,1 10 0,0
19.11.2017 08:00:00 2,1 0,5 18 10 - - W 1020,7 10 -
19.11.2017 07:00:00 0,5 -2,2 9 5 - - ZW 1020,5 10 0,0
19.11.2017 06:00:00 4,7 0,8 22 12 - - WNW 1020,3 10 0,0
19.11.2017 05:00:00 5,0 1,0 28 15 - - WNW 1020,3 10 0,0
19.11.2017 04:00:00 5,1 0,4 26 14 - - WNW 1020,2 10 0,0
19.11.2017 03:00:00 5,0 0,5 26 14 - - WNW 1020,0 10 0,0
19.11.2017 02:00:00 5,5 0,0 31 17 - - WNW 1019,4 10 0,0
19.11.2017 01:00:00 5,6 0,4 31 17 - - WNW 1019,2 10 0,0
19.11.2017 00:00:00 5,5 0,6 21 11 - - WNW 1019,4 10 0,0
18.11.2017 23:00:00 5,8 0,7 26 14 - - W 1019,0 10 0,0
18.11.2017 22:00:00 5,6 1,7 24 13 - - WNW 1018,5 10 0,0
18.11.2017 21:00:00 5,6 1,7 28 15 - - WNW 1018,2 10 0,0
18.11.2017 20:00:00 5,7 2,0 28 15 - - W 1017,8 10 0,0
18.11.2017 19:00:00 5,4 1,8 24 13 - - W 1017,5 10 0,0
18.11.2017 18:00:00 5,5 2,2 26 14 - - W 1017,0 10 0,0
18.11.2017 17:00:00 6,1 2,2 28 15 52 28 W 1016,5 10 0,0
18.11.2017 16:00:00 6,1 1,8 37 20 57 31 WNW 1016,2 10 0,0
18.11.2017 15:00:00 6,6 1,0 37 20 57 31 WNW 1015,8 10 0,0
18.11.2017 14:00:00 6,8 -0,5 48 26 67 36 WNW 1015,2 10 0,0
18.11.2017 13:00:00 7,1 -1,6 41 22 55 30 W 1015,6 10 0,0
18.11.2017 12:00:00 6,1 -0,7 42 23 55 30 W 1015,4 10 0,0
18.11.2017 11:00:00 6,2 -2,2 29 16 50 27 W 1015,7 10 0,0
18.11.2017 10:00:00 5,5 -2,0 35 19 54 29 W 1015,1 10 0,0
18.11.2017 09:00:00 4,9 -1,6 34 18 50 27 W 1015,3 10 0,0
18.11.2017 08:00:00 4,9 -2,4 28 15 52 28 W 1015,1 10 0,0
18.11.2017 07:00:00 4,8 -1,5 24 13 - - W 1014,7 10 0,0
18.11.2017 06:00:00 5,2 -1,2 34 18 50 27 W 1014,2 10 0,0
18.11.2017 05:00:00 4,7 -0,6 34 18 57 31 W 1013,8 10 0,0
18.11.2017 04:00:00 4,9 -0,1 37 20 72 39 WNW 1013,5 10 0,2
18.11.2017 03:00:00 4,8 0,8 34 18 67 36 W 1013,4 10 0,0
18.11.2017 02:00:00 4,7 1,2 44 24 70 38 W 1012,9 10 0,0
18.11.2017 01:00:00 5,0 1,9 29 16 68 37 WNW 1013,0 10 0,0
18.11.2017 00:00:00 5,3 1,7 35 19 74 40 WNW 1012,8 10 0,4
17.11.2017 23:00:00 5,9 2,8 42 23 67 36 W 1012,7 5 0,8
17.11.2017 22:00:00 6,2 3,1 37 20 - - W 1012,5 10 0,0
17.11.2017 21:00:00 5,8 4,0 29 16 - - WZW 1013,0 10 1,4
17.11.2017 20:00:00 6,3 3,4 31 17 55 30 WZW 1013,1 10 0,0
17.11.2017 19:00:00 6,8 2,8 35 19 54 29 WZW 1013,5 10 0,0
17.11.2017 18:00:00 7,1 3,0 34 18 55 30 WZW 1014,1 10 0,0
17.11.2017 17:00:00 7,0 3,3 31 17 - - W 1014,3 10 0,0
17.11.2017 16:00:00 7,0 2,4 26 14 52 28 WZW 1014,9 10 0,0
17.11.2017 15:00:00 8,1 2,3 35 19 59 32 W 1014,9 10 0,0
17.11.2017 14:00:00 8,3 2,7 35 19 55 30 W 1015,5 10 0,0
17.11.2017 13:00:00 8,7 2,2 31 17 55 30 WZW 1016,3 10 0,0
17.11.2017 12:00:00 8,3 2,0 35 19 54 29 WZW 1016,5 10 0,0
17.11.2017 11:00:00 7,3 1,9 29 16 - - W 1016,9 10 0,0
17.11.2017 10:00:00 7,1 1,9 29 16 - - WZW 1017,1 10 0,0
17.11.2017 09:00:00 6,2 2,0 29 16 - - WZW 1017,4 10 0,0
17.11.2017 08:00:00 5,8 1,7 16 9 - - WZW 1017,7 10 0,0
17.11.2017 07:00:00 5,4 1,8 18 10 - - ZW 1018,3 10 0,0
17.11.2017 06:00:00 5,1 1,5 24 13 - - ZW 1018,2 10 0,0
17.11.2017 05:00:00 5,5 1,2 21 11 - - ZW 1018,5 10 0,0
17.11.2017 04:00:00 5,3 0,8 28 15 - - WZW 1018,9 10 0,0
17.11.2017 03:00:00 4,7 0,2 34 18 - - ZW 1019,1 10 0,0
17.11.2017 02:00:00 4,7 -0,4 26 14 - - ZW 1019,5 10 0,0
17.11.2017 01:00:00 3,9 -0,2 26 14 - - WZW 1019,7 10 0,0
17.11.2017 00:00:00 4,3 -0,5 24 13 - - ZW 1020,2 10 0,0
16.11.2017 23:00:00 3,7 -0,4 26 14 - - WZW 1019,9 10 0,0
16.11.2017 22:00:00 3,3 0,3 24 13 - - WZW 1020,1 10 0,0
16.11.2017 21:00:00 4,3 0,4 31 17 - - WZW 1019,6 10 0,0
16.11.2017 20:00:00 3,2 0,4 29 16 - - WZW 1018,9 10 0,0
16.11.2017 19:00:00 3,5 0,6 26 14 48 26 WZW 1018,5 10 0,0
16.11.2017 18:00:00 5,1 0,5 34 18 50 27 W 1017,7 10 0,0
16.11.2017 17:00:00 5,7 1,0 31 17 59 32 W 1017,3 10 0,0
16.11.2017 16:00:00 5,4 1,0 34 18 48 26 W 1016,3 10 0,0
16.11.2017 15:00:00 5,6 0,8 34 18 55 30 W 1015,6 10 0,0
16.11.2017 14:00:00 6,7 0,6 31 17 54 29 W 1014,8 10 0,0
16.11.2017 13:00:00 5,5 1,7 34 18 54 29 WZW 1013,9 10 0,0
16.11.2017 12:00:00 5,5 1,2 41 22 57 31 W 1013,5 10 0,0
16.11.2017 11:00:00 5,4 1,5 35 19 52 28 WZW 1012,6 10 0,0
16.11.2017 10:00:00 4,9 2,1 28 15 48 26 WZW 1011,3 10 0,0
16.11.2017 09:00:00 5,6 0,8 42 23 55 30 W 1010,1 10 0,0
16.11.2017 08:00:00 6,4 2,6 31 17 - - W 1008,6 10 0,6
16.11.2017 07:00:00 7,0 4,8 24 13 - - WZW 1007,0 10 0,2
16.11.2017 06:00:00 7,5 6,3 18 10 - - WZW 1006,2 10 0,0
16.11.2017 05:00:00 8,2 7,0 16 9 55 30 WZW 1005,5 10 1,6
16.11.2017 04:00:00 11,6 6,3 34 18 50 27 ZW 1004,2 10 0,0
16.11.2017 03:00:00 11,2 6,2 31 17 55 30 ZZW 1005,0 10 0,0
16.11.2017 02:00:00 11,4 5,8 35 19 57 31 ZZW 1005,9 10 0,0
16.11.2017 01:00:00 10,7 5,7 37 20 55 30 ZW 1007,1 10 0,0
16.11.2017 00:00:00 10,3 5,5 34 18 48 26 ZW 1008,9 10 0,0
15.11.2017 23:00:00 9,5 5,1 28 15 48 26 ZZW 1010,1 10 0,0
15.11.2017 22:00:00 8,2 4,3 15 8 - - Z 1011,2 10 0,0
15.11.2017 21:00:00 8,3 3,9 18 10 - - Z 1012,9 10 0,0
15.11.2017 20:00:00 7,5 3,9 11 6 - - ZO 1014,1 10 0,0
15.11.2017 19:00:00 6,6 3,8 15 8 - - ZZO 1015,0 10 -
15.11.2017 18:00:00 6,5 3,6 13 7 - - ZZO 1016,3 10 0,0
15.11.2017 17:00:00 6,5 3,5 13 7 - - ZZO 1017,3 10 0,0
15.11.2017 16:00:00 6,2 3,5 9 5 - - ZZO 1018,5 10 0,0
15.11.2017 15:00:00 6,7 3,6 11 6 - - ZZO 1019,3 10 0,0
15.11.2017 14:00:00 7,2 4,1 9 5 - - Z 1020,3 10 0,0
15.11.2017 13:00:00 7,0 3,7 9 5 - - Z 1021,0 10 0,0
15.11.2017 12:00:00 5,7 3,2 11 6 - - ZO 1021,7 10 0,0
15.11.2017 11:00:00 4,8 2,8 5 3 - - ZZO 1022,3 10 0,0
15.11.2017 10:00:00 3,4 1,8 13 7 - - ZW 1022,3 10 0,0
15.11.2017 09:00:00 2,9 1,5 8 4 - - Z 1022,0 10 0,0
15.11.2017 08:00:00 2,5 1,1 13 7 - - WZW 1021,6 10 0,0
15.11.2017 07:00:00 2,5 1,5 9 5 - - ZW 1021,3 10 0,0
15.11.2017 06:00:00 1,5 1,1 8 4 - - Z 1021,1 10 0,0
15.11.2017 05:00:00 3,6 2,8 4 2 - - Z 1020,7 10 0,0
15.11.2017 04:00:00 3,0 1,6 21 11 - - WZW 1020,0 10 0,0
15.11.2017 03:00:00 4,7 3,2 18 10 - - ZW 1019,9 10 0,0
15.11.2017 02:00:00 5,7 4,2 15 8 - - WNW 1019,4 10 -
15.11.2017 01:00:00 5,8 4,3 21 11 - - ZW 1018,7 10 0,0
15.11.2017 00:00:00 6,5 4,3 13 7 - - W 1018,5 10 0,0
14.11.2017 23:00:00 6,7 3,9 22 12 - - WZW 1017,6 10 0,2
14.11.2017 22:00:00 6,4 3,5 21 11 - - WZW 1017,2 10 0,0
14.11.2017 21:00:00 5,8 2,9 21 11 - - ZW 1016,6 10 0,0
14.11.2017 20:00:00 5,4 2,8 18 10 - - WZW 1016,5 10 0,0
14.11.2017 19:00:00 6,3 3,1 22 12 - - WZW 1016,3 10 0,0
14.11.2017 18:00:00 6,9 4,2 11 6 - - WZW 1016,1 10 0,0
14.11.2017 17:00:00 6,2 4,2 18 10 - - WZW 1015,6 10 0,0
14.11.2017 16:00:00 7,9 3,8 11 6 - - ZZO 1015,6 10 0,0
14.11.2017 15:00:00 8,0 4,8 21 11 - - WZW 1015,7 10 0,0
14.11.2017 14:00:00 8,6 5,0 11 6 - - WZW 1015,7 10 0,0
14.11.2017 13:00:00 9,0 5,4 16 9 - - WZW 1015,6 10 0,0
14.11.2017 12:00:00 8,0 5,3 21 11 - - WZW 1016,0 10 0,0
14.11.2017 11:00:00 8,4 6,3 13 7 - - ZW 1016,1 10 0,0
14.11.2017 10:00:00 7,0 6,1 13 7 - - WZW 1015,8 10 0,0
14.11.2017 09:00:00 6,8 6,2 13 7 - - WZW 1015,7 10 0,2
14.11.2017 08:00:00 6,6 5,5 15 8 - - WZW 1015,2 10 -
14.11.2017 07:00:00 5,0 4,5 16 9 - - WZW 1014,4 10 0,0
14.11.2017 06:00:00 6,5 5,8 21 11 - - W 1013,9 10 0,0
14.11.2017 05:00:00 7,3 6,2 15 8 - - WZW 1013,6 10 0,0
14.11.2017 04:00:00 6,9 5,7 22 12 - - W 1012,7 10 0,0
14.11.2017 03:00:00 5,7 5,0 15 8 - - WZW 1012,7 10 0,0
14.11.2017 02:00:00 7,2 5,6 15 8 - - WZW 1012,3 10 0,0
14.11.2017 01:00:00 8,0 6,7 26 14 - - WZW 1011,4 10 0,0
14.11.2017 00:00:00 8,6 6,4 22 12 - - W 1011,0 10 0,8

tt = temperatuur
td = dauwpunt
ff = windsnelheid
fx = windstoten
dd = windrichting
ppp = luchtdruk
vv = zicht
rr = neerslag

Weerstations in de omgeving